Location: Unspecified
(0.0000°N, 0.0000°E)
Time: 16:04:25
(UTC+00:00)

TSUBAME - Visible Passes

Search period start: 28 May 2023 00:00
Search period end: 07 June 2023 00:00
Orbit: 456 x 499 km, 97.1° (Epoch: 28 May)

Date Brightness Start Highest point End Pass type
(mag) Time Alt. Az. Time Alt. Az. Time Alt. Az.
28 May ? 18:58:56 10° SSW 19:01:31 19° WSW 19:04:04 10° NW visible
29 May ? 18:31:38 10° S 18:35:06 54° W 18:38:30 10° NNW visible
31 May ? 19:14:05 10° WSW 19:15:12 11° WSW 19:16:18 10° W visible
01 Jun ? 05:28:03 10° E 05:28:44 10° ESE 05:29:26 10° ESE visible
01 Jun ? 18:45:37 10° SSW 18:48:44 30° W 18:51:48 10° NW visible
02 Jun ? 18:18:42 10° SSE 18:22:13 86° E 18:25:39 10° N visible
04 Jun ? 18:59:44 10° SW 19:02:09 18° WSW 19:04:33 10° WNW visible
05 Jun ? 18:32:13 10° S 18:35:35 51° WSW 18:38:55 10° NNW visible
